Regional Weather Roundup
Issued by NWS

Home | Current Version | Previous Version | Text Only | Print | Product List | Glossary On
Versions: 1 2 3 4 5 6 7 8 9 10 11 12 13 14 15 16 17 18 19 20 21 22 23 24 25 26 27 28 29 30 31 32 33 34 35 36 37 38 39 40 41 42 43 44 45 46 47 48 49 50
000
ASUS43 KFSD 281910
RWRSD

WEATHER ROUNDUP FOR SOUTH DAKOTA
NATIONAL WEATHER SERVICE SIOUX FALLS SD
200 PM CDT TUE APR 28 2015

NOTE: "FAIR" INDICATES FEW OR NO CLOUDS BELOW 12,000 FEET WITH NO
SIGNIFICANT WEATHER AND/OR OBSTRUCTIONS TO VISIBILITY.


SDZ001>005-009-010-012>017-282000-
NORTHWEST AND NORTH CENTRAL SOUTH DAKOTA

CITY           SKY/WX    TMP DP  RH WIND       PRES   REMARKS
BUFFALO          N/A     58  36  43 VRB5      30.17F
FAITH            N/A     59  34  39 VRB7      30.25F
MOBRIDGE       SUNNY     62  30  29 VRB7      30.23F
$$

SDZ012>016-024>037-041>051-057-063-072>074-282000-
SOUTHWEST AND SOUTH CENTRAL SOUTH DAKOTA

CITY           SKY/WX    TMP DP  RH WIND       PRES   REMARKS
RAPID CTY ARPT MOSUNNY   59  38  45 SE7       30.26F
PIERRE         MOSUNNY   59  37  44 VRB5      30.25F
CUSTER         CLOUDY    53  36  52 SE8       30.26F
ELLSWORTH AFB  MOSUNNY   57  37  47 VRB5      30.25F
PHILIP         SUNNY     61  36  39 NE8       30.26F
PINE RIDGE     CLOUDY    57  37  47 VRB3      30.27F
SPEARFISH      FAIR      55  41  58 E12       30.25F
WINNER         MOCLDY    58  37  45 NW9       30.27F
$$

SDZ004>011-016>023-039-040-282000-
NORTHEAST SOUTH DAKOTA

CITY           SKY/WX    TMP DP  RH WIND       PRES   REMARKS
ABERDEEN       MOSUNNY   64  35  34 N10G18    30.23F
WATERTOWN      SUNNY     63  32  31 N18       30.20F
BROOKINGS      MOSUNNY   61  39  44 N14G22    30.19F
SISSETON         N/A     63  31  30 NE14      30.20F
$$

SDZ017-020-022-023-036>040-048>070-282000-
SOUTHEAST SOUTH DAKOTA

CITY           SKY/WX    TMP DP  RH WIND       PRES   REMARKS
SIOUX FALLS    PTSUNNY   62  45  53 NW17      30.18F
HURON          MOSUNNY   63  39  41 N7G20     30.21F
CHAMBERLAIN    PTSUNNY   56  38  50 NW9       30.26F
MITCHELL       PTSUNNY   60  42  51 W7        30.23F
YANKTON        MOSUNNY   63  45  51 N15       30.20F
$$

ABBREVIATIONS USED IN REMARKS
   TC - TEMPERATURE IN CELSIUS
  WCI - WIND CHILL INDEX
   HX - HEAT INDEX
  VSB - VISIBILITY




USA.gov is the U.S. government's official web portal to all federal, state and local government web resources and services.